ATLAS D DEB, 2327

Orbit data source: Space-Track

ATLAS D DEB, 2327 is space debris in LEO originally from a launch on Thu, 14 Jul 1966 UTC launched from the Air Force Western Test Range (AFWTR). Debris objects in space refer to the collection of defunct objects orbiting the Earth. Examples of debris include non-operational satellites, rocket bodies, and fragments generated from explosions, collisions, or faulty payload assembly.

Loading next visibility...
Identifier
2327, 1966-063B
Orbit
LEO
Country
Flag of USUS
Related business
Manufacturer
Goodyear
Mission
Spacecraft
Bus & Motor
CONTAINER, Unknown motor
Mass
2 kg wet, 2 kg dry
Launch date (UTC)
1966-07-14 (60 years ago)
Launch vehicle
Unknown
Launch site
Air Force Western Test Range (AFWTR)
Object type
Payload
Rocket body
Debris
Shape & HBR
Unknown
Radar Cross Section
Medium (>0.1 m² and <1 m²)

Expand to show TLE details & history
Last TLE update: 15 hours ago

TLE from 15 hours ago
0 ATLAS D DEB
1  2327U 66063B   26125.34330949  .00001314  00000-0  62966-3 0  9997
2  2327 144.1945  64.0814 0032715 211.3229 148.5507 14.05601475 32058
Epoch: 2026-05-05T08:14Z
TLE epoch observation values (Epoch: 2026-05-05T08:14:21.939Z)
Latitude
-0.00008°
Longitude
77.27058°
Altitude
893.765 km
Speed
7.397 km/s
True Right ascension
04h 16m 19s
True Declination
0° 00' 00"
Sunlit
Object was in daylight at epoch
Visualization orbit readout
Latitude
Unknown
Longitude
Unknown
Altitude
Unknown
Speed
Unknown
Apparent Right ascension
Unknown
Apparent Declination
Unknown
Sunlit
N/A
Visualization observer readout
Local Sidereal Time
07:09:36
Azimuth
Unknown
Elevation
Unknown
Doppler factor
Unknown
Orbital elements
Apogee altitude
901.16 km
Perigee altitude
853.686 km
Semi-major axis
7,255.56 km
Eccentricity
0.00327
Inclination
144.1945°
RAAN
64.0814°
Arg. of periapsis
211.3229°
True anomaly
148.74561°
Mean anomaly
148.5507°
Eccentric anomaly
148.64822°
Mean motion
3.51186 °/min
Orbital period
102.51 mins
BSTAR
0.00062966
Loading maneuver chart data...
Computing Atmospheric mass density...
Loading historical data...
Loading historical data...
Loading historical data...
Loading historical data...
Loading historical data...
Loading historical data...
Loading historical data...

Documentation

Showing up to 5 results
|